When you browse on this site, cookies collect data to enhance your experience and personalize the content and advertising you see.
Visit our Privacy Policy to learn more. By continuing to use the site, you agree to this use of cookies and data.

Stündliche Wetter Aachen

Heute, 9 August, Sonntag

Zeit Temperatur Niederschläge Wind Luftdruck Luftfeuchtigkeit
00:00 +25°C° 0 mm 1 m/S 748 mmHg 60%
01:00 +25°C° 0.2 mm 1 m/S 748 mmHg 62%
02:00 +24°C° 0.2 mm 1 m/S 748 mmHg 63%
03:00 +24°C° 0.2 mm 1 m/S 748 mmHg 64%
04:00 +25°C° 0.2 mm 1 m/S 748 mmHg 67%
05:00 +25°C° 0.2 mm 1 m/S 748 mmHg 70%
06:00 +25°C° 0.2 mm 1 m/S 748 mmHg 72%
07:00 +27°C° 0 mm 1 m/S 748 mmHg 66%
08:00 +27°C° 0 mm 0 m/S 748 mmHg 59%
09:00 +28°C° 0 mm 0 m/S 748 mmHg 53%
10:00 +32°C° 0 mm 1 m/S 748 mmHg 48%
11:00 +33°C° 0 mm 1 m/S 747 mmHg 43%
12:00 +35°C° 0 mm 1 m/S 747 mmHg 39%
13:00 +35°C° 0.1 mm 1 m/S 747 mmHg 39%
14:00 +34°C° 0.1 mm 1 m/S 747 mmHg 40%
15:00 +35°C° 0.1 mm 2 m/S 746 mmHg 41%
16:00 +31°C° 2.1 mm 3 m/S 746 mmHg 53%
17:00 +28°C° 2.1 mm 4 m/S 746 mmHg 64%
18:00 +23°C° 2.1 mm 6 m/S 746 mmHg 76%
19:00 +23°C° 0.6 mm 5 m/S 746 mmHg 76%
20:00 +22°C° 0.6 mm 4 m/S 746 mmHg 77%
21:00 +22°C° 0.6 mm 3 m/S 746 mmHg 77%
22:00 +22°C° 0.4 mm 3 m/S 746 mmHg 79%
23:00 +23°C° 0.4 mm 2 m/S 746 mmHg 81%

Morgen, 10 August, Montag

Zeit Temperatur Niederschläge Wind Luftdruck Luftfeuchtigkeit
00:00 +23°C° 0.4 mm 2 m/S 746 mmHg 83%
01:00 +23°C° 0.1 mm 2 m/S 746 mmHg 82%
02:00 +23°C° 0.1 mm 2 m/S 746 mmHg 80%
03:00 +23°C° 0.1 mm 2 m/S 746 mmHg 79%
04:00 +23°C° 0.1 mm 2 m/S 746 mmHg 80%
05:00 +23°C° 0.1 mm 2 m/S 746 mmHg 80%
06:00 +24°C° 0.1 mm 2 m/S 745 mmHg 80%
07:00 +26°C° 0 mm 2 m/S 746 mmHg 71%
08:00 +28°C° 0 mm 2 m/S 746 mmHg 63%
09:00 +30°C° 0 mm 2 m/S 746 mmHg 54%
10:00 +31°C° 0 mm 2 m/S 746 mmHg 50%
11:00 +32°C° 0 mm 1 m/S 746 mmHg 45%
12:00 +34°C° 0 mm 1 m/S 745 mmHg 41%
13:00 +34°C° 0 mm 1 m/S 745 mmHg 42%
14:00 +34°C° 0 mm 1 m/S 745 mmHg 42%
15:00 +34°C° 0 mm 1 m/S 745 mmHg 43%
16:00 +32°C° 0.3 mm 2 m/S 745 mmHg 50%
17:00 +30°C° 0.3 mm 3 m/S 745 mmHg 56%
18:00 +28°C° 0.3 mm 3 m/S 744 mmHg 63%
19:00 +27°C° 0.9 mm 2 m/S 745 mmHg 66%
20:00 +25°C° 0.9 mm 2 m/S 745 mmHg 70%
21:00 +24°C° 0.9 mm 1 m/S 746 mmHg 73%
22:00 +24°C° 0.3 mm 1 m/S 746 mmHg 75%
23:00 +24°C° 0.3 mm 2 m/S 746 mmHg 77%

übermorgen, 11 August, Dienstag

Zeit Temperatur Niederschläge Wind Luftdruck Luftfeuchtigkeit
00:00 +23°C° 0.3 mm 2 m/S 746 mmHg 79%
01:00 +23°C° 0.1 mm 2 m/S 746 mmHg 80%
02:00 +23°C° 0.1 mm 1 m/S 746 mmHg 81%
03:00 +23°C° 0.1 mm 1 m/S 746 mmHg 82%
04:00 +23°C° 0.3 mm 1 m/S 746 mmHg 81%
05:00 +24°C° 0.3 mm 1 m/S 746 mmHg 81%
06:00 +24°C° 0.3 mm 1 m/S 746 mmHg 80%
07:00 +26°C° 0 mm 1 m/S 746 mmHg 72%
08:00 +28°C° 0 mm 1 m/S 746 mmHg 64%
09:00 +31°C° 0 mm 1 m/S 746 mmHg 55%
10:00 +31°C° 0.1 mm 2 m/S 746 mmHg 51%
11:00 +32°C° 0.1 mm 2 m/S 746 mmHg 47%
12:00 +34°C° 0.1 mm 2 m/S 746 mmHg 43%
13:00 +35°C° 0 mm 2 m/S 746 mmHg 43%
14:00 +35°C° 0 mm 2 m/S 745 mmHg 42%
15:00 +35°C° 0 mm 2 m/S 745 mmHg 42%
16:00 +32°C° 0 mm 2 m/S 745 mmHg 47%
17:00 +31°C° 0 mm 2 m/S 745 mmHg 53%
18:00 +30°C° 0 mm 2 m/S 745 mmHg 58%
19:00 +28°C° 0.4 mm 2 m/S 745 mmHg 63%
20:00 +27°C° 0.4 mm 3 m/S 745 mmHg 68%
21:00 +25°C° 0.4 mm 3 m/S 746 mmHg 73%
22:00 +25°C° 0.3 mm 3 m/S 746 mmHg 75%
23:00 +24°C° 0.3 mm 3 m/S 746 mmHg 77%

12 August, Mittwoch

Zeit Temperatur Niederschläge Wind Luftdruck Luftfeuchtigkeit
00:00 +22°C° 0.3 mm 3 m/S 746 mmHg 79%
01:00 +23°C° 0 mm 2 m/S 745 mmHg 80%
02:00 +23°C° 0 mm 2 m/S 745 mmHg 80%
03:00 +23°C° 0 mm 2 m/S 745 mmHg 80%
04:00 +23°C° 0 mm 2 m/S 745 mmHg 79%
05:00 +24°C° 0 mm 2 m/S 745 mmHg 78%
06:00 +24°C° 0 mm 2 m/S 745 mmHg 77%
07:00 +26°C° 0 mm 2 m/S 745 mmHg 70%
08:00 +29°C° 0 mm 3 m/S 745 mmHg 62%
09:00 +31°C° 0 mm 3 m/S 745 mmHg 55%
10:00 +33°C° 0 mm 3 m/S 745 mmHg 51%
11:00 +33°C° 0 mm 4 m/S 745 mmHg 47%
12:00 +34°C° 0 mm 4 m/S 745 mmHg 43%
13:00 +34°C° 0 mm 4 m/S 745 mmHg 43%
14:00 +34°C° 0 mm 4 m/S 744 mmHg 43%
15:00 +35°C° 0 mm 3 m/S 744 mmHg 43%
16:00 +33°C° 0 mm 3 m/S 744 mmHg 48%
17:00 +31°C° 0 mm 3 m/S 743 mmHg 53%
18:00 +30°C° 0 mm 3 m/S 743 mmHg 57%
19:00 +28°C° 0 mm 3 m/S 743 mmHg 58%
20:00 +27°C° 0 mm 3 m/S 743 mmHg 58%
21:00 +26°C° 0 mm 4 m/S 743 mmHg 59%
22:00 +26°C° 0 mm 4 m/S 743 mmHg 60%
23:00 +25°C° 0 mm 3 m/S 743 mmHg 62%

13 August, Donnerstag

Zeit Temperatur Niederschläge Wind Luftdruck Luftfeuchtigkeit
00:00 +25°C° 0 mm 3 m/S 743 mmHg 63%
01:00 +24°C° 0 mm 3 m/S 743 mmHg 66%
02:00 +24°C° 0 mm 3 m/S 742 mmHg 68%
03:00 +22°C° 0 mm 3 m/S 742 mmHg 71%
04:00 +22°C° 0 mm 3 m/S 742 mmHg 73%
05:00 +24°C° 0 mm 3 m/S 742 mmHg 74%
06:00 +24°C° 0 mm 2 m/S 742 mmHg 75%
07:00 +25°C° 0.1 mm 3 m/S 742 mmHg 72%
08:00 +26°C° 0.1 mm 4 m/S 742 mmHg 68%
09:00 +27°C° 0.1 mm 4 m/S 742 mmHg 64%
10:00 +28°C° 0 mm 5 m/S 742 mmHg 61%
11:00 +29°C° 0 mm 5 m/S 742 mmHg 57%
12:00 +29°C° 0 mm 5 m/S 742 mmHg 54%
13:00 +29°C° 0 mm 5 m/S 742 mmHg 54%
14:00 +29°C° 0 mm 4 m/S 741 mmHg 54%
15:00 +29°C° 0 mm 4 m/S 741 mmHg 55%
16:00 +29°C° 0 mm 4 m/S 741 mmHg 57%
17:00 +28°C° 0 mm 3 m/S 741 mmHg 59%
18:00 +27°C° 0 mm 3 m/S 741 mmHg 62%
19:00 +26°C° 0 mm 3 m/S 741 mmHg 65%
20:00 +24°C° 0 mm 3 m/S 741 mmHg 68%
21:00 +22°C° 0 mm 3 m/S 742 mmHg 71%
22:00 +21°C° 0 mm 3 m/S 741 mmHg 70%
23:00 +21°C° 0 mm 2 m/S 741 mmHg 69%

14 August, Freitag

Zeit Temperatur Niederschläge Wind Luftdruck Luftfeuchtigkeit
00:00 +21°C° 0 mm 2 m/S 741 mmHg 68%
01:00 +20°C° 0 mm 2 m/S 741 mmHg 70%
02:00 +20°C° 0 mm 3 m/S 741 mmHg 72%
03:00 +19°C° 0 mm 3 m/S 741 mmHg 74%
04:00 +20°C° 0 mm 3 m/S 741 mmHg 75%
05:00 +20°C° 0 mm 4 m/S 741 mmHg 76%
06:00 +21°C° 0 mm 5 m/S 741 mmHg 78%
07:00 +20°C° 0.1 mm 5 m/S 742 mmHg 79%
08:00 +20°C° 0.1 mm 5 m/S 742 mmHg 81%
09:00 +20°C° 0.1 mm 5 m/S 742 mmHg 83%
10:00 +19°C° 0.1 mm 5 m/S 742 mmHg 82%
11:00 +19°C° 0.1 mm 5 m/S 743 mmHg 82%
12:00 +17°C° 0.1 mm 5 m/S 743 mmHg 81%
13:00 +19°C° 0 mm 5 m/S 743 mmHg 74%
14:00 +20°C° 0 mm 4 m/S 743 mmHg 68%
15:00 +21°C° 0 mm 4 m/S 743 mmHg 61%
16:00 +21°C° 0 mm 4 m/S 743 mmHg 61%
17:00 +20°C° 0 mm 3 m/S 744 mmHg 62%
18:00 +19°C° 0 mm 3 m/S 744 mmHg 62%
19:00 +18°C° 0 mm 2 m/S 744 mmHg 66%
20:00 +17°C° 0 mm 2 m/S 744 mmHg 70%
21:00 +15°C° 0 mm 1 m/S 744 mmHg 74%
22:00 +15°C° 0 mm 2 m/S 744 mmHg 76%
23:00 +15°C° 0 mm 2 m/S 745 mmHg 78%
Mehr zeigen